Location: Tamazert
(32.6352°N, 5.2072°W)
Time: 17:02:12
(UTC+00:00)

Courier 1B Rocket - All Passes

Search period start: 26 September 2022 00:00
Search period end: 06 October 2022 00:00
Orbit: 920 x 1202 km, 28.2° (Epoch: 25 September)

Date Brightness Start Highest point End Pass type
(mag) Time Alt. Az. Time Alt. Az. Time Alt. Az.
26 Sep - 01:35:32 10° W 01:41:38 50° S 01:48:07 10° ESE night (unlit)
26 Sep - 03:29:22 10° WSW 03:34:40 26° SSW 03:40:17 10° SSE visible
26 Sep - 19:00:33 10° SSE 19:01:50 11° SSE 19:03:06 10° SE visible
26 Sep - 20:49:05 10° SW 20:54:33 31° SSE 20:59:56 10° E visible
26 Sep - 22:41:26 10° WSW 22:47:30 55° S 22:53:40 10° E night (unlit)
27 Sep - 00:34:33 10° W 00:40:39 55° S 00:47:02 10° ESE night (unlit)
27 Sep - 02:28:04 10° W 02:33:44 33° SSW 02:39:42 10° SE visible
27 Sep - 04:23:56 10° SW 04:26:38 12° SSW 04:29:23 10° S visible
27 Sep - 19:48:45 10° SSW 19:53:42 24° SSE 19:58:32 10° ESE visible
27 Sep - 21:40:35 10° WSW 21:46:34 48° SSE 21:52:33 10° E visible
27 Sep - 23:33:35 10° W 23:39:41 59° S 23:45:57 10° ESE night (unlit)
28 Sep - 01:26:56 10° W 01:32:47 41° SSW 01:38:55 10° SE night (unlit)
28 Sep - 03:21:28 10° WSW 03:25:42 18° SSW 03:30:05 10° SSE visible
28 Sep - 18:48:47 10° SSW 18:52:51 17° SSE 18:56:48 10° ESE visible
28 Sep - 20:39:46 10° SW 20:45:40 40° SSE 20:51:26 10° E visible
28 Sep - 22:32:36 10° WSW 22:38:44 59° S 22:44:53 10° E night (unlit)
29 Sep - 00:25:53 10° W 00:31:51 48° SSW 00:38:01 10° ESE night (unlit)
29 Sep - 02:19:48 10° WSW 02:24:47 24° SSW 02:29:59 10° SSE night (unlit)
29 Sep - 17:49:45 10° S 17:51:58 12° SSE 17:54:09 10° SE daylight
29 Sep - 19:39:05 10° SW 19:44:47 32° SSE 19:50:16 10° E visible
29 Sep - 21:31:37 10° WSW 21:37:47 55° S 21:43:50 10° E visible
29 Sep - 23:24:51 10° W 23:30:55 54° S 23:37:04 10° ESE night (unlit)
30 Sep - 01:18:28 10° W 01:23:54 31° SSW 01:29:33 10° SE night (unlit)
30 Sep - 03:14:54 10° SW 03:16:42 11° SSW 03:18:31 10° SSW night (unlit)
30 Sep - 18:38:36 10° SSW 18:43:53 25° SSE 18:48:57 10° ESE visible
30 Sep - 20:30:39 10° WSW 20:36:50 49° S 20:42:49 10° E visible
30 Sep - 22:23:48 10° W 22:29:58 58° S 22:36:05 10° ESE visible
01 Oct - 00:17:17 10° W 00:23:01 39° SSW 00:28:53 10° SE night (unlit)
01 Oct - 02:12:01 10° WSW 02:15:50 17° SSW 02:19:44 10° S night (unlit)
01 Oct - 17:38:27 10° SSW 17:42:58 19° SSE 17:47:19 10° ESE daylight
01 Oct - 19:29:44 10° SW 19:35:54 41° SSE 19:41:47 10° E visible
01 Oct - 21:22:43 10° WSW 21:29:00 59° S 21:35:07 10° E visible
01 Oct - 23:16:09 10° W 23:22:07 47° SSW 23:28:06 10° ESE night (unlit)
02 Oct - 01:10:13 10° WSW 01:14:59 23° SSW 01:19:50 10° SSE night (unlit)
02 Oct - 16:39:01 10° S 16:42:03 13° SSE 16:45:00 10° SE daylight
02 Oct - 18:28:55 10° SW 18:34:57 34° SSE 18:40:39 10° E visible
02 Oct - 20:21:39 10° WSW 20:28:02 56° S 20:34:09 10° E visible
02 Oct - 22:15:02 10° W 22:21:11 54° S 22:27:15 10° ESE visible
03 Oct - 00:08:47 10° W 00:14:08 30° SSW 00:19:32 10° SE night (unlit)
03 Oct - 02:06:36 10° SSW 02:06:51 10° SSW 02:07:05 10° SSW night (unlit)
03 Oct - 17:28:18 10° SSW 17:33:59 27° SSE 17:39:22 10° ESE daylight
03 Oct - 19:20:34 10° WSW 19:27:03 50° S 19:33:10 10° E visible
03 Oct - 21:13:53 10° W 21:20:14 59° S 21:26:21 10° ESE visible
03 Oct - 23:07:30 10° W 23:13:16 38° SSW 23:19:00 10° SE night (unlit)
04 Oct - 01:02:29 10° WSW 01:06:01 15° SSW 01:09:34 10° S night (unlit)
04 Oct - 16:28:01 10° SSW 16:33:01 20° SSE 16:37:49 10° ESE daylight
04 Oct - 18:19:32 10° SW 18:26:03 43° SSE 18:32:09 10° E visible
04 Oct - 20:12:42 10° WSW 20:19:14 60° S 20:25:27 10° E visible
04 Oct - 22:06:17 10° W 22:12:22 47° SSW 22:18:19 10° ESE visible
05 Oct - 00:00:32 10° WSW 00:05:12 22° SSW 00:09:52 10° SSE night (unlit)
05 Oct - 15:28:19 10° S 15:32:02 15° SSE 15:35:39 10° ESE daylight
05 Oct - 17:18:38 10° SW 17:25:02 36° SSE 17:31:03 10° E daylight
05 Oct - 19:11:31 10° WSW 19:18:13 57° S 19:24:31 10° E visible
05 Oct - 21:05:03 10° W 21:11:26 54° S 21:17:32 10° ESE visible
05 Oct - 22:58:59 10° W 23:04:23 30° SSW 23:09:41 10° SE night (unlit)
